Home > Weather > Steffisburg > Past weeks

Flag for Switzerland Past Weather in Steffisburg, Bern, Switzerland — Yesterday and Last 2 Weeks

Now
68 °F

Partly sunny.


Feels Like: 68 °F
Forecast: 60 / 80 °F
Wind: 6 mph from Southeast

Location: Bern / Belp

Current Time: Jul 25, 2016 at 10:09:56 AM

Latest Report: Jul 25, 2016 at 9:20 AM


Visibility: N/A

Pressure: 30.15 "Hg (28.17 "Hg at 582m altitude)

Humidity: 88%

Dew Point: 64 °F

Location of SteffisburgLocation

Past Weather in Steffisburg — Graph

°F

Steffisburg Temperature Yesterday

Maximum temperature yesterday: 81 °F (at 3:20 PM)
Minimum temperature yesterday: 59 °F (at 4:20 AM)
Average temperature yesterday: 69 °F

High & Low Weather Summary for the Past Weeks

 TemperatureHumidityPressure
High91 °F (Jul 19, 5:50 PM)100% (Jul 12, 12:50 AM)30.33 "Hg (Jul 12, 12:50 AM)
Low43 °F (Jul 16, 4:50 AM)26% (Jul 19, 5:20 PM)29.95 "Hg (Jul 10, 4:20 PM)
Average66 °F77%30.11 "Hg
* Reported Jul 10 8:20 AM — Jul 25 8:50 AM, Steffisburg, Weather by CustomWeather, © 2016

Note: Actual official high and low records may vary slightly from our data, if they occured in-between our weather recording intervals... More about our weather records

Advertising

Steffisburg Weather History for the Previous 24 Hours

Scroll right to see more
 ConditionsComfort  
Time TempWeatherWind HumidityBarometerVisibility
8:50 AM
Mon, Jul 25
66 °FPartly sunny.6 mph94%30.15 "HgN/A
8:20 AM66 °FPartly sunny.5 mph94%30.15 "HgN/A
7:50 AM64 °FPartly sunny.5 mph94%30.15 "HgN/A
7:20 AM64 °FPartly sunny.3 mph94%30.15 "HgN/A
6:50 AM63 °FPassing clouds.6 mph100%30.15 "HgN/A
6:20 AM63 °FPassing clouds.6 mph94%30.12 "HgN/A
5:50 AM63 °FPassing clouds.6 mph100%30.15 "HgN/A
5:20 AM63 °FPartly cloudy.3 mph100%30.15 "HgN/A
4:50 AM61 °FPassing clouds.5 mph100%30.15 "HgN/A
4:20 AM61 °FPassing clouds.6 mph100%30.12 "Hg6 mi
3:50 AM63 °FPassing clouds.5 mph94%30.15 "Hg5 mi
3:20 AM63 °FMild.2 mph100%30.15 "HgN/A
2:50 AM64 °FOvercast.2 mph94%30.15 "HgN/A
2:20 AM64 °FPartly cloudy.3 mph94%30.15 "HgN/A
1:50 AM64 °FPassing clouds.3 mph94%30.15 "HgN/A
1:20 AM64 °FMostly cloudy.5 mph100%30.15 "HgN/A
12:50 AM64 °FPartly cloudy.3 mph100%30.15 "HgN/A
12:20 AM64 °FLow clouds.5 mph100%30.15 "HgN/A
11:50 PM
Sun, Jul 24
66 °FDrizzle. Overcast.5 mph94%30.15 "HgN/A
11:20 PM66 °FSprinkles. Partly cloudy.6 mph94%30.15 "HgN/A
10:50 PM66 °FSprinkles. Passing clouds.5 mph94%30.15 "HgN/A
10:20 PM66 °FSprinkles. Passing clouds.6 mph94%30.15 "Hg6 mi
9:50 PM66 °FRain showers. Partly sunny.6 mph100%30.15 "HgN/A
9:20 PM68 °FPartly sunny.7 mph88%30.12 "HgN/A
8:50 PM68 °FPartly sunny.9 mph88%30.12 "HgN/A
8:20 PM70 °FBroken clouds.14 mph83%30.09 "HgN/A
7:50 PM75 °FPartly sunny.2 mph61%30.09 "HgN/A
7:20 PM75 °FThundershowers. Scattered clouds.6 mph61%30.09 "HgN/A
6:50 PM77 °FPartly sunny.8 mph61%30.07 "HgN/A
6:20 PM77 °FPartly sunny.6 mph57%30.07 "HgN/A
5:50 PM79 °FPassing clouds.7 mph54%30.07 "HgN/A
5:20 PM77 °FScattered clouds.9 mph57%30.09 "HgN/A
4:50 PM77 °FScattered clouds.5 mph61%30.09 "HgN/A
4:20 PM81 °FScattered clouds.5 mph51%30.09 "HgN/A
3:50 PM79 °FScattered clouds.9 mph51%30.09 "HgN/A
3:20 PM81 °FPassing clouds.6 mph51%30.09 "HgN/A
2:50 PM79 °FPassing clouds.5 mph58%30.09 "HgN/A
2:20 PM77 °FPassing clouds.3 mph54%30.12 "HgN/A
1:50 PM75 °FScattered clouds.5 mph65%30.12 "HgN/A
1:20 PM77 °FScattered clouds.5 mph57%30.12 "HgN/A
12:50 PM75 °FScattered clouds.3 mph61%30.12 "HgN/A
12:20 PM73 °FScattered clouds.3 mph69%30.12 "HgN/A
11:50 AM73 °FScattered clouds.6 mph69%30.12 "HgN/A
11:20 AM72 °FPartly sunny.3 mph69%30.12 "HgN/A
10:50 AM72 °FBroken clouds.2 mph69%30.12 "HgN/A
10:20 AM70 °FPartly sunny.5 mph73%30.12 "HgN/A
Weather by CustomWeather, © 2016

See weather overviewHow to use our weather pages